Weather History for Stillwater, OK

Change the Weather History Date:

Wednesday, January 30, 2013

  Actual Average Record
Temperature  
Mean Temperature 34 °F -  
Max Temperature 42 °F 47 °F 64 °F (2012)
Min Temperature 26 °F 26 °F 12 °F (2004)
Degree Days  
Heating Degree Days 30    
Moisture  
Dew Point 26 °F    
Average Humidity 66    
Maximum Humidity 82    
Minimum Humidity 40    
Precipitation  
Precipitation 0.00 in - - ()
Sea Level Pressure  
Sea Level Pressure 29.90 in    
Wind  
Wind Speed 15 mph (NW)    
Max Wind Speed 22 mph    
Max Gust Speed 32 mph    
Visibility 10 miles    
Events      
Averages and records for this station are not official NWS values.
T = Trace of Precipitation, MM = Missing Value Source: NWS Daily Summary

Daily Weather History Graph

Daily Weather History Graph

Search for Another Location

Airport:

Trip Planner

Search our weather history database for the weather conditions in past years. The results will help you decide how hot, cold, wet, or windy it might be!

Date:

Astronomy

Jan. 30, 2013 Rise Set
Actual Time 7:30 AM CST 5:53 PM CST
Civil Twilight 7:03 AM CST 6:20 PM CST
Nautical Twilight 6:32 AM CST 6:51 PM CST
Astronomical Twilight 6:02 AM CST 7:21 PM CST
Moon 9:43 PM CST (1/30) 9:07 AM CST (1/30)
Length of Visible Light 11h 16m
Length of Day
10h 22m
Waning Gibbous, 87% of the Moon is Illuminated
Jan 30
Waning Gibbous
Feb 3
Last Quarter
Feb 10
New
Feb 17
First Quarter
Feb 25
Full

Hourly Weather History & Observations

Time (CST) Temp. Windchill Dew Point Humidity Pressure Visibility Wind Dir Wind Speed Gust Speed Precip Events Conditions
12:53 AM 39.0 °F 30.6 °F 34.0 °F 82% 29.66 in 10.0 mi NW 15.0 mph 19.6 mph N/A   Overcast
1:53 AM 39.0 °F 31.4 °F 32.0 °F 76% 29.68 in 10.0 mi NNW 12.7 mph 24.2 mph N/A   Overcast
2:53 AM 37.9 °F 28.5 °F 30.9 °F 76% 29.69 in 10.0 mi NW 17.3 mph 23.0 mph N/A   Overcast
3:53 AM 37.0 °F 26.7 °F 28.9 °F 73% 29.72 in 10.0 mi NNW 19.6 mph 25.3 mph N/A   Overcast
4:53 AM 37.0 °F 27.4 °F 28.9 °F 73% 29.74 in 10.0 mi NNW 17.3 mph 25.3 mph N/A   Overcast
5:01 AM 37.4 °F 27.8 °F 28.4 °F 70% 29.74 in 10.0 mi NW 17.3 mph 25.3 mph N/A   Overcast
5:24 AM 37.4 °F 28.2 °F 28.4 °F 70% 29.76 in 10.0 mi NW 16.1 mph 25.3 mph N/A   Overcast
5:51 AM 35.6 °F 25.9 °F 28.4 °F 75% 29.78 in 10.0 mi NW 16.1 mph 28.8 mph N/A   Overcast
5:53 AM 36.0 °F 25.6 °F 28.9 °F 76% 29.78 in 10.0 mi NNW 18.4 mph 31.1 mph N/A   Overcast
6:36 AM 35.6 °F 25.9 °F 28.4 °F 75% 29.81 in 10.0 mi NNW 16.1 mph 27.6 mph N/A   Overcast
6:53 AM 36.0 °F 26.3 °F 28.0 °F 73% 29.83 in 10.0 mi NW 16.1 mph 27.6 mph N/A   Overcast
7:53 AM 35.1 °F 24.1 °F 28.0 °F 76% 29.88 in 10.0 mi NNW 19.6 mph 26.5 mph N/A   Overcast
8:53 AM 35.1 °F 24.5 °F 28.0 °F 76% 29.91 in 10.0 mi NW 18.4 mph 25.3 mph N/A   Overcast
9:24 AM 35.6 °F 25.5 °F 28.4 °F 75% 29.93 in 10.0 mi NW 17.3 mph 25.3 mph N/A   Mostly Cloudy
9:53 AM 36.0 °F 24.7 °F 25.0 °F 64% 29.95 in 10.0 mi NNW 21.9 mph 31.1 mph N/A   Mostly Cloudy
10:03 AM 37.4 °F 27.5 °F 26.6 °F 65% 29.94 in 10.0 mi NNW 18.4 mph 32.2 mph N/A   Scattered Clouds
10:53 AM 37.9 °F 27.9 °F 25.0 °F 60% 29.98 in 10.0 mi NW 19.6 mph 27.6 mph N/A   Scattered Clouds
11:53 AM 37.9 °F 28.5 °F 26.1 °F 62% 29.99 in 10.0 mi NW 17.3 mph 25.3 mph N/A   Mostly Cloudy
12:53 PM 39.0 °F 29.0 °F 26.1 °F 60% 29.99 in 10.0 mi NNW 20.7 mph 27.6 mph N/A   Mostly Cloudy
1:53 PM 37.9 °F 29.6 °F 24.1 °F 57% 29.99 in 10.0 mi NNW 13.8 mph 24.2 mph N/A   Overcast
2:53 PM 39.9 °F 32.1 °F 24.1 °F 53% 29.99 in 10.0 mi WNW 13.8 mph 23.0 mph N/A   Mostly Cloudy
3:53 PM 42.1 °F 33.9 °F 23.0 °F 47% 29.99 in 10.0 mi WNW 17.3 mph 25.3 mph N/A   Scattered Clouds
4:53 PM 42.1 °F 36.6 °F 21.0 °F 43% 29.99 in 10.0 mi NW 9.2 mph - N/A   Clear
5:53 PM 41.0 °F 34.7 °F 18.0 °F 40% 30.01 in 10.0 mi WNW 10.4 mph 20.7 mph N/A   Clear
6:53 PM 37.9 °F 32.1 °F 17.1 °F 43% 30.03 in 10.0 mi NW 8.1 mph - N/A   Clear
7:53 PM 34.0 °F 31.0 °F 19.0 °F 54% 30.05 in 10.0 mi NW 3.5 mph - N/A   Clear
8:53 PM 30.9 °F - 19.9 °F 64% 30.06 in 10.0 mi Calm Calm - N/A   Clear
9:53 PM 28.9 °F - 21.0 °F 72% 30.06 in 10.0 mi Calm Calm - N/A   Clear
10:53 PM 27.0 °F - 21.0 °F 78% 30.06 in 10.0 mi Calm Calm - N/A   Clear
11:53 PM 26.1 °F - 21.0 °F 81% 30.06 in 10.0 mi Calm Calm - N/A   Clear